, SD

(GMT )
Rapid City

Weather History for KRAP - January, 2013

Change the Weather History Date:

Monday, January 7, 2013

  Actual Average Record
Temperature  
Mean Temperature 34 °F 25 °F  
Max Temperature 46 °F 37 °F 64 °F (2002)
Min Temperature 21 °F 13 °F -18 °F (1968)
Degree Days  
Heating Degree Days 31 40  
Month to date heating degree days 271 282  
Since 1 July heating degree days 3018 3198  
Cooling Degree Days 0 0  
Month to date cooling degree days 0 0  
Year to date cooling degree days 0 0  
Moisture  
Dew Point 19 °F    
Average Humidity 61    
Maximum Humidity 81    
Minimum Humidity 40    
Precipitation  
Precipitation 0.00 in 0.01 in 0.35 in (1975)
Month to date precipitation T 0.08  
Year to date precipitation T 0.08  
Snow  
Snow 0.00 in 0.10 in 4.70 in (1975)
Month to date snowfall T 1.0  
Since 1 July snowfall 9.6 14.2  
Snow Depth 0.00 in    
Sea Level Pressure  
Sea Level Pressure 29.93 in    
Wind  
Wind Speed 6 mph (WSW)    
Max Wind Speed 15 mph    
Max Gust Speed 18 mph    
Visibility 10 miles    
Events      
T = Trace of Precipitation, MM = Missing Value Source: NWS Daily Summary

Daily Weather History Graph

Daily Weather History Graph

Search for Another Location

Airport or City:

Trip Planner

Search our weather history database for the weather conditions in past years. The results will help you decide how hot, cold, wet, or windy it might be!

Date:

Astronomy

Jan. 07, 2013 Rise Set
Actual Time 7:26 AM MST 4:31 PM MST
Civil Twilight 6:54 AM MST 5:03 PM MST
Nautical Twilight 6:17 AM MST 5:39 PM MST
Astronomical Twilight 5:43 AM MST 6:14 PM MST
Moon 2:50 AM MST (1/7) 12:45 PM MST (1/7)
Length of Visible Light 10h 09m
Length of Day
9h 04m
Waning Crescent, 22% of the Moon is Illuminated
Jan 7
Waning Crescent
Jan 11
New
Jan 18
First Quarter
Jan 26
Full
Feb 3
Last Quarter

Hourly Weather History & Observations

Time (MST) Temp. Windchill Dew Point Humidity Pressure Visibility Wind Dir Wind Speed Gust Speed Precip Events Conditions
12:52 AM 30.9 °F - 16.0 °F 54% 29.91 in 10.0 mi Calm Calm - N/A   Clear
1:52 AM 30.0 °F 26.5 °F 15.1 °F 54% 29.92 in 10.0 mi SSW 3.5 mph - N/A   Clear
2:52 AM 30.9 °F 22.8 °F 17.1 °F 57% 29.92 in 10.0 mi NNW 9.2 mph - N/A   Clear
3:52 AM 26.1 °F 17.6 °F 17.1 °F 69% 29.95 in 10.0 mi NW 8.1 mph - N/A   Clear
4:52 AM 28.9 °F 19.2 °F 19.0 °F 67% 29.99 in 10.0 mi NNW 11.5 mph - N/A   Clear
5:52 AM 28.9 °F 19.2 °F 19.0 °F 67% 30.02 in 10.0 mi NNW 11.5 mph - N/A   Clear
6:52 AM 24.1 °F 19.7 °F 16.0 °F 71% 30.05 in 10.0 mi South 3.5 mph - N/A   Clear
7:52 AM 24.1 °F 17.0 °F 17.1 °F 75% 30.06 in 10.0 mi West 5.8 mph - N/A   Clear
8:52 AM 33.1 °F 28.7 °F 21.0 °F 61% 30.04 in 10.0 mi West 4.6 mph - N/A   Clear
9:52 AM 39.0 °F 34.8 °F 24.1 °F 55% 30.02 in 10.0 mi South 5.8 mph - N/A   Clear
10:52 AM 43.0 °F 37.7 °F 24.1 °F 47% 29.99 in 10.0 mi South 9.2 mph - N/A   Clear
11:52 AM 45.0 °F 39.7 °F 23.0 °F 42% 29.94 in 10.0 mi South 10.4 mph - N/A   Clear
12:52 PM 44.1 °F 39.0 °F 21.0 °F 40% 29.92 in 10.0 mi South 9.2 mph - N/A   Clear
1:52 PM 45.0 °F 39.7 °F 21.0 °F 39% 29.91 in 10.0 mi SSE 10.4 mph - N/A   Clear
2:52 PM 44.1 °F 40.1 °F 21.0 °F 40% 29.91 in 10.0 mi ESE 6.9 mph - N/A   Clear
3:52 PM 37.9 °F 34.4 °F 21.9 °F 53% 29.93 in 10.0 mi SE 4.6 mph - N/A   Clear
4:52 PM 30.9 °F 22.2 °F 19.9 °F 64% 29.93 in 10.0 mi NE 10.4 mph - N/A   Clear
5:52 PM 25.0 °F 17.1 °F 18.0 °F 75% 29.93 in 10.0 mi NNE 6.9 mph - N/A   Clear
6:52 PM 23.0 °F 15.8 °F 17.1 °F 78% 29.93 in 10.0 mi West 5.8 mph - N/A   Clear
7:52 PM 23.0 °F 15.8 °F 17.1 °F 78% 29.91 in 10.0 mi NW 5.8 mph - N/A   Clear
8:52 PM 23.0 °F - 17.1 °F 78% 29.86 in 10.0 mi Calm Calm - N/A   Clear
9:52 PM 24.1 °F - 18.0 °F 77% 29.82 in 10.0 mi Calm Calm - N/A   Partly Cloudy
10:52 PM 25.0 °F - 19.0 °F 78% 29.77 in 10.0 mi Calm Calm - N/A   Scattered Clouds
11:52 PM 26.1 °F - 19.9 °F 78% 29.72 in 10.0 mi Calm Calm - N/A   Overcast